DIAMANT R/B, 1805

Orbit data source: Space-Track

DIAMANT R/B, 1805 is space debris in LEO originally from a launch on Fri, 26 Nov 1965 UTC launched from the Hamma Guira Space Track Range (HGSTR). Debris objects in space refer to the collection of defunct objects orbiting the Earth. Examples of debris include non-operational satellites, rocket bodies, and fragments generated from explosions, collisions, or faulty payload assembly.

Loading next visibility...
Identifier
1805, 1965-096B
Orbit
LEO
Country
Flag of FRFR
Related business
Manufacturer
Sud
Mission
Spacecraft
Bus & Motor
RUBIS, Unknown motor
Mass
65 kg wet, 65 kg dry
Launch date (UTC)
1965-11-26 (60 years ago)
Launch vehicle
Unknown
Launch site
Hamma Guira Space Track Range (HGSTR)
Object type
Payload
Rocket body
Debris
Shape & HBR
Unknown
Radar Cross Section
Large (>1 m²)

Expand to show TLE details & history
Last TLE update: 13 hours ago

TLE from 13 hours ago
0 DIAMANT R/B
1  1805U 65096B   25304.75010355  .00004908  00000-0  10203-2 0  9999
2  1805  34.2452  92.7950 0585714 168.4003 193.0824 13.87109418972962
Epoch: 2025-10-31T18:00Z
TLE epoch observation values (Epoch: 2025-10-31T18:00:08.946Z)
Latitude
-0.00002°
Longitude
142.46763°
Altitude
1,356.207 km
Speed
6.974 km/s
True Right ascension
06h 11m 10s
True Declination
0° 00' 00"
Sunlit
Object was in daylight at epoch
Visualization orbit readout
Latitude
Unknown
Longitude
Unknown
Altitude
Unknown
Speed
Unknown
Apparent Right ascension
Unknown
Apparent Declination
Unknown
Sunlit
N/A
Visualization observer readout
Local Sidereal Time
02:26:10
Azimuth
Unknown
Elevation
Unknown
Doppler factor
Unknown
Orbital elements
Apogee altitude
1,370.708 km
Perigee altitude
513.212 km
Semi-major axis
7,320.097 km
Eccentricity
0.05857
Inclination
34.2452°
RAAN
92.795°
Arg. of periapsis
168.4003°
True anomaly
191.66469°
Mean anomaly
193.0824°
Eccentric anomaly
192.36384°
Mean motion
3.46552 °/min
Orbital period
103.88 mins
BSTAR
0.0010203
Loading maneuver chart data...
Computing Atmospheric mass density...
Loading historical data...
Loading historical data...
Loading historical data...
Loading historical data...
Loading historical data...
Loading historical data...
Loading historical data...
Other satellites on launch #96 in the year 1965 (1965-11-26 UTC)

Documentation

Showing up to 5 results
|